Location: Moscow
(55.7500°N, 37.5830°E)
Time: 22:10:23
(UTC+03:00)

COSMOS 2251 DEB - Pass Details

Date: 05 July 2022
Orbit: 738 x 847 km, 74.1° (Epoch: 17 August)

Event Time Altitude Azimuth Distance (km) Brightness Sun altitude
Rises 00:32:49 0° 320° (NW) 3,281 ? -11.4°
Reaches altitude 10° 00:37:13 10° 354° (N) 2,322 ? -11.4°
Maximum altitude 00:38:51 11° 12° (NNE) 2,218 ? -11.4°
Drops below altitude 10° 00:40:29 10° 31° (NNE) 2,301 ? -11.4°
Sets 00:44:47 0° 65° (ENE) 3,203 ? -11.4°
